Airfield :
LOGIN :

Register | Disclaimer

   EN    FR    IT 

 










Legend :    VFR   Marginal VFR   IFR   Intensive IFR   Very Intensive IFR
Visi :
Ceiling :
>= 8 km
>= 3000ft
5 to 8 km
1000 to 3000 ft
1500m to 5 km
500 to 1000 ft
800 to 1500m
200 to 500 ft
< 800m
< 200 ft
Symbols :   Thunderstorms  Fog  Heavy snow  Heavy precipitations  Wind > 20 kt
SIGMETs :     Misc.  Thunderstorms  Icing  Turbulence  Mountain Waves  Volcanic Ashes







- Airport Elevation : 306 ft
- IATA code : EMA
- Download approach charts


EGNX - Nottingham East Midlands

CURRENT METAR :
  • 190420Z 23012KT 9999 BKN039 06/04 Q1014

EXPIRED METARs :
  • 190350Z 22014KT 9999 BKN041 06/04 Q1013
  • 190320Z 23013KT 9999 BKN040 06/04 Q1014
  • 190250Z 23015KT 9999 BKN040 06/04 Q1014
  • 190220Z 23014KT 9999 BKN042 06/04 Q1013
  • 190150Z 21013KT 9999 SCT041 06/04 Q1013

TAF TAF EGNX
Valid from the 19 at 00:00 until the 20 at 00:00 UTC


182259Z 1900/1924 22012KT 9999 SCT035
PROB30
TEMPO 1921/1924 8000 RA
ATIS : +44 1332 852 852 (ext 3201)
No reported NOTAMs for that airfield.



MET'MAP, your aeronautical weather chart ! - Copyright ORBIFLY December 2007 - Disclaimer

ORBIFLY MET'MAP TEAM :

Programming & Development : Alexandra Zaïnal
Concept & Development : Baudouin d'Aumeries
Co-Development & Prog : Marc-Olivier Méhu
Technical & hardware support : Manuel Goepfert

Contact : metmap@orbifly.com




SOURCES & CREDITS :

   NOAA